COSMOS 735

Satellite information

Favourite Embed

Satellite Type and Status

PAYLOADIN ORBIT

Key statistics

Satellite COSMOS 735 at a glance.

Uptime

18367

Days in orbit

Revolutions

≈ 12.5

Per day

Orbit

LEO

Low Earth Orbit

Inclination

74.0

Latest

Satellite identification and parameters

Extended collection of information and parameters for COSMOS 735.

Object identification

Identified? True

Debris? False

Object name: COSMOS 735

International designator: 1975-045D

Object number (NORAD): 7824

Object ID (CCSDS): 7824

Country: COMMONWEALTH OF INDEPENDENT STATES (CIS)

Current information (Y/N): Y

RCS size: MEDIUM

Orbital parameters

Period: 115.259 minutes

Inclination: 74.022 deg

SMA: 7845.294 km

Apoapsis: 1473.683 km

Periapsis: 1460.635 km

RAAN: 349.8335 deg

Eccentricy: 0.0008316

Argument of periapsis: 328.621 deg

Mean anomaly: 47.2323 deg

Mean motion: 12.49363884 rev/day

Mean motion (dot): -0.00000001 rev/day2

B* drag term: 0.00009637417 1/REarth

Two-line elements (TLE)

Creation date: Sept. 8, 2025, 6:18 p.m.

Reference frame: TEME

Reference center: EARTH

Epoch: Sept. 8, 2025, 1:36 p.m. UTC

TLE line 0: 0 COSMOS 735

TLE line 1: 1 07824U 75045D 25251.56694927 -.00000001 00000-0 96374-4 0 9990

TLE line 2: 2 07824 74.0220 349.8335 0008316 328.6210 47.2323 12.49363884293411

Live tracking on map

Real-time ground track for satellite COSMOS 735.

In-orbit conjunctions

There are no conjunctions computed for COSMOS 735, at the moment. Check back to stay up to date, as we update our databases every day.

Go to all conjunctions

Associated space launch

Military communications satellites

COSMOS 735 was lifted into orbit during the mission ‘Kosmos-3M | Strela-1M 89-96’, on board a Kosmos-3M space rocket.

The launch took place on May 28, 1975, 12:25 a.m. from 132/1 (132L).

For more information about the launch, click the button.

Launch to space Kosmos-3M | Strela-1M 89-96
Kosmos-3M | Strela-1M 89-96

Agency: N/A

Status: Launch Successful

Launch date: May 28, 1975, 12:25 a.m. UTC

Rocket: Kosmos-3M

Launch pad: 132/1 (132L)

Location: Plesetsk Cosmodrome, Russian Federation

...

Latest news about this satellite

There are no fresh news available about this satellite. Check back as we update our databases every day.


Newsletter sign-up

Weekly statistics, charts and insights to help you stay on top of the space industry.